Regional Weather Roundup
Issued by NWS

Home | Current Version | Previous Version | Text Only | Print | Product List | Glossary Off
Versions: 1 2 3 4 5 6 7 8 9 10 11 12 13 14 15 16 17 18 19 20 21 22 23 24 25 26 27 28 29 30 31 32 33 34 35 36 37 38 39 40 41 42 43 44 45 46 47 48 49 50

000
ASUS45 KTFX 230804
RWRMT
MONTANA HOURLY WEATHER ROUNDUP
NATIONAL WEATHER SERVICE GREAT FALLS MT
204 AM MDT WED JUL 23 2014

NOTE: "FAIR" INDICATES FEW OR NO CLOUDS BELOW 12000 FEET WITH NO
SIGNIFICANT WEATHER AND/OR OBSTRUCTIONS TO VISIBILITY.

* THESE STATIONS ARE NOT UNDER NWS QUALITY CONTROL. THEY DO NOT
   REPORT WEATHER SUCH AS PRECIPITATION OR FOG.

MTZ001>007-043-230900-
WEST OF THE DIVIDE
CITY           SKY/WX    TMP DP  RH WIND       PRES   REMARKS
KALISPELL      CLOUDY    59  55  87 NW3       30.13F
MISSOULA       PTCLDY    72  48  43 NW9       30.12F
BUTTE          CLEAR     55  48  77 VRB3      30.24F
MULLAN PASS    CLOUDY    54  46  74 NW8       30.31R
* ESSEX        N/A       57  53  87 SE1        N/A
* LINCOLN      N/A       56  54  93 NW1        N/A
* LOOKOUT PASS N/A       55  54  96 NW1G6      N/A
* POLSON       N/A       59  52  78 SW1        N/A
* RONAN APT    MOCLDY    57  52  83 N/A        N/A
* SEELEY LAKE  N/A       54  49  83 NE2        N/A
* THOMP F APT  CLOUDY    70  35  28 NE6G13     N/A
* YAAK HILL    N/A       59  56  90 E1         N/A
$$

MTZ008-052>055-230900-
SOUTHWEST MONTANA
CITY           SKY/WX    TMP DP  RH WIND       PRES   REMARKS
BOZEMAN        PTCLDY    57  50  78 N5        30.18F
DILLON         PTCLDY    61  48  62 NE5       30.19S
W YELLOWSTONE  PTCLDY    45  43  93 CALM      30.33F
* THREE FORKS  PTCLDY    59  59 100 N/A        N/A
* BOULDER HILL N/A       59  43  56 NW1        N/A
* MONIDA PASS  N/A       60  36  41 SW2        N/A
* RAYNOLDS PAS N/A       55  54  96 N4         N/A
* WHITEHALL    N/A       66  53  63 E3G10      N/A
* WISE RIVER   N/A       54  48  80 NW3        N/A
$$

MTZ009>010-012-014-046-048-049-054-230900-
EAST SLOPES AND CENTRAL MONTANA
CITY           SKY/WX    TMP DP  RH WIND       PRES   REMARKS
CUT BANK       CLEAR     55  52  90 NW3       30.19F
GREAT FALLS    PTCLDY    63  55  75 E3        30.16R
HELENA         MOCLDY    63  57  81 SE7       30.16F
* CONRAD       PTCLDY    57  57 100 N/A        N/A
* DEARBORN     N/A       60  57  90 SW1        N/A
* EAST GLACIER N/A       53  49  86 W1         N/A
* MONARCH      N/A       60  47  62 S8         N/A
* PENDROY      N/A       61  51  70 N6         N/A
* ROGERS PASS  N/A       59  49  70 NW3        N/A
* SAINT MARY   N/A       46  45  96 S2         N/A
* SWEET GRASS  N/A       63  57  81 S12        N/A
$$

MTZ011-013-016-021-035-040-045-047-050-051-230900-
NORTH CENTRAL MONTANA
CITY           SKY/WX    TMP DP  RH WIND       PRES   REMARKS
HAVRE          MOCLDY    66  52  61 E13       30.13F
LEWISTOWN      MOCLDY    57  54  90 SE7       30.24F
* CHESTER      N/A       64  55  73 E3         N/A
* DENTON       N/A       63  55  75 SE13       N/A
* GEYSER       N/A       60  57  90 NE7        N/A
* JUDITH GAP   N/A       60  57  90 N/A        N/A
* LOMA         N/A       70  54  57 E11        N/A
$$

MTZ017>020-022>027-061-062-230900-
NORTHEAST MONTANA
CITY           SKY/WX    TMP DP  RH WIND       PRES   REMARKS
GLASGOW        PTCLDY    66  57  73 E12       30.20F
GLENDIVE       PTCLDY    64  61  90 NE5       30.24S
JORDAN         PTCLDY    63  54  73 CALM      30.21S
SIDNEY         PTCLDY    63  57  81 N3        30.24F
WOLF POINT     CLEAR     63  55  75 E7        30.22S
* BEAVER HILL  N/A       63  60  90 E3G8       N/A
* CIRCLE       N/A       64  56  75 N/A        N/A
* LINDSAY DVD  N/A       60  58  93 E6         N/A
* NAVAJO       N/A       61  59  93 NE4        N/A
$$

MTZ028>042-056>058-230900-
SOUTHCENTRAL AND SOUTHEAST MONTANA
CITY           SKY/WX    TMP DP  RH WIND       PRES   REMARKS
BAKER          CLEAR     63  59  87 SE7       30.23S
BILLINGS       CLEAR     63  57  81 NW8       30.23S
LIVINGSTON     MOCLDY    64  52  65 E12       30.24F
MILES CITY     CLEAR     66  61  84 E5        30.20F
* LAUREL APT   CLEAR     63  55  75 NW7        N/A
* ROUNDUP APT  MOCLDY    63  55  75 N/A        N/A
* ALZADA       N/A       62  61  97 E6         N/A
* HYSHAM       N/A       66  59  78 W4         N/A
* LAME DEER    N/A       64  58  81 S9         N/A
* REED POINT   N/A       58  56  93 N/A        N/A
* ROSCOE HILL  N/A       61  43  52 S8         N/A
$$

REGIONAL REPORTS...DAKOTAS
CITY           SKY/WX    TMP DP  RH WIND       PRES   REMARKS
WILLISTON      PTCLDY    68  63  84 SE3       30.23F
DICKINSON      MOCLDY    63  61  93 SE7       30.24S
CROSBY         CLOUDY    63  63 100 NE6       30.27S
TIOGA          FAIR      63  63 100 E8        30.29S
WATFORD CITY   CLEAR     64  63  97 E6        30.22F
BISMARCK       MOCLDY    64  63  97 NE5       30.25S
GRAND FORKS    PTCLDY    57  55  93 NW3       30.26S
FARGO          PTCLDY    61  57  87 N3        30.25F
BUFFALO SD     PTCLDY    63  59  87 E7        30.17S
RAPID CITY     TSTM      61  57  87 S33G40    30.27F
$$

REGIONAL REPORTS...WYOMING/IDAHO/WASHINGTON
CITY           SKY/WX    TMP DP  RH WIND       PRES   REMARKS
GILLETTE       CLEAR     64  57  78 SE8       30.31F
SHERIDAN       CLEAR     63  55  75 S7        30.27F
CODY           CLEAR     61  45  56 SW6       30.28F
YELLOWSTONE LA CLEAR     45  39  80 CALM      30.46F
SALMON         CLOUDY    63  48  58 CALM      30.06S
MULLAN PASS    CLOUDY    54  46  74 NW8       30.31S
SAND POINT     CLOUDY    61  55  81 N6        30.14R
SPOKANE        CLOUDY    66  55  68 S10       30.12R

$$



USA.gov is the U.S. government's official web portal to all federal, state and local government web resources and services.